Volver al catálogo

TITAN 3C TRANSTAGE DEB

LostHEO
NORAD 26529·DEBRIS·🇺🇸 United States

Lanzado Dec 21, 1965 desde Cape Canaveral Space Force Station

Loading…

Próximos Pases (próximas 24 horas)

TLE

ObsoletoSource: Space-Track

Época: Sep 9, 2025, 04:35 UTC

1 26529U 65108AQ  25252.19136875 -.00000222  00000-0 -20416-2 0  9993
2 26529  26.3984 153.9304 6814718 223.0250 342.1889  2.65515012 34359

Sigue TITAN 3C TRANSTAGE DEB en tiempo real con AllMySat

Download on the App Store